Regional Weather Roundup
Issued by NWS State College, PA

Home | Current Version | Previous Version | Text Only | Print | Product List | Glossary On
Versions: 1 2 3 4 5 6 7 8 9 10 11 12 13 14 15 16 17 18 19 20 21 22 23 24 25 26 27 28 29 30 31 32 33 34 35 36 37 38 39 40 41 42 43 44 45 46 47 48 49 50
000
ASUS41 KCTP 040303
RWRCTP

REGIONAL WEATHER ROUNDUP
NATIONAL WEATHER SERVICE STATE COLLEGE PA
1000 PM EST TUE MAR 03 2015

Note: "fair" indicates few or no clouds below 12,000 feet with no
significant weather and/or obstructions to visibility.

* = STATION THAT DOES NOT REPORT PRECIPITATION /E.G. RAIN...SNOW...ETC/
    THUNDER OR FOG.

PAZ002>004-007>009-013>016-020>023-029>032-040400-
WESTERN PENNSYLVANIA

CITY           SKY/WX    TMP DP  RH WIND       PRES   REMARKS
ERIE           CLOUDY    38  34  85 W17G28    29.70R
MEADVILLE      LGT RAIN  39  36  89 W12       29.69R
FRANKLIN*      CLOUDY    39  37  93 W15       29.73R
NEW CASTLE     CLOUDY    41  40  96 SW8       29.75R
BEAVER COUNTY  NOT AVBL
BUTLER*        CLOUDY    45  43  93 W8        29.74S
PITTSBURGH INT LGT RAIN  48  46  93 W12G21    29.73R
PITTSBURGH     LGT RAIN  47  44  90 W14       29.73R
INDIANA*       FOG       46  46 100 W10G16    29.76R VSB 1/4
LATROBE        LGT RAIN  50  50 100 SW12G21   29.75F FOG
WASHINGTON CO* CLOUDY    50  48  93 W14G25    29.76R
$$

PAZ004>006-010>012-017>019-024>028-033>037-041-042-045-046-049>053-040400-
CENTRAL PENNSYLVANIA

CITY           SKY/WX    TMP DP  RH WIND       PRES   REMARKS
BRADFORD       CLOUDY    36  34  92 SW10G18   29.65R FOG
DUBOIS         FOG       34  32  92 CALM      29.70R VSB 1/4
CLEARFIELD     FRZ RAIN  32  31  96 N6        29.74S FOG
JOHNSTOWN      RAIN      46  45  96 SW15G26   29.71F VSB 1/2
ALTOONA        LGT RAIN  33  30  88 S6        29.78F FOG
STATE COLLEGE  MIX PCPN  31  29  93 SW7       29.78F
WILLIAMSPORT   SLEET     29  23  78 E9        29.83F
SELINSGROVE    FRZ RAIN  30  27  88 S8        29.86F FOG
FT INDIANTOWN  DRIZZLE   29  27  93 CALM      29.89F FOG
CAPITAL CITY   MIX PCPN  32  27  81 CALM      29.89F
HARRISBURG     FRZ RAIN  31  28  89 E3        29.89F
YORK           CLOUDY    33  28  81 VRB5      29.88F
$$

PAZ038>040-043-044-047-048-054-055-060>062-067>071-040400-
EASTERN PENNSYLVANIA

CITY           SKY/WX    TMP DP  RH WIND       PRES   REMARKS
SCRANTON       CLOUDY    29  22  75 S12G22    29.74F
MOUNT POCONO   FRZ RAIN  26  23  88 SW16G25   29.79F FOG     WCI  14
ALLENTOWN      FRZ RAIN  33  28  81 S7        29.91F
QUAKERTOWN*    CLOUDY    32  30  93 CALM      29.91F
READING        FRZ RAIN  32  29  88 S8        29.91F
LANCASTER      MIX PCPN  32  30  92 SW5       29.90F FOG
COATESVILLE    CLOUDY    32  32 100 SW5       29.91F FOG
POTTSTOWN      MIX PCPN  32  32 100 VRB6      29.93F
BLUE BELL      CLOUDY    34  32  93 SW6       29.93F
DOYLESTOWN     MIX PCPN  31  31 100 VRB7      29.91F
WILLOW GROVE   NOT AVBL
NORTH PHILA    LGT RAIN  35  30  82 SW7       29.97F
PHILADELPHIA   FRZ RAIN  33  31  92 SW14      29.96F FOG
$$


USA.gov is the U.S. government's official web portal to all federal, state and local government web resources and services.